Volver al catálogo

COSMOS 2307

GLONASS

LostNavegaciónMEO
NORAD 23511·PAYLOAD·🇷🇺 Russia

Lanzado Mar 7, 1995 desde Baikonur Cosmodrome

Loading…

Próximos Pases (próximas 24 horas)

TLE

ObsoletoSource: Space-Track

Época: Aug 3, 2026, 16:23 UTC

1 23511U 95009A   26215.68275075 -.00000028  00000-0  00000+0 0  9991
2 23511  63.9827 299.5482 0006228 139.3928 220.7980  2.13105844244210

Sigue COSMOS 2307 en tiempo real con AllMySat

Download on the App Store